Flag for France Weather past 2 weeks in Villeurbanne, France

Now
84 °F

Sunny.


Feels Like: 83 °F
Forecast: 67 / 94 °F
Wind: 6 mph from North

Location: Lyon / Bron

Current Time: Aug 2, 2015 at 4:37:58 PM

Latest Report: Aug 2, 2015 at 4:00 PM


Visibility: 10 mi

Pressure: 30.01 "Hg

Humidity: 37%

Dew point: 55 °F

Location of VilleurbanneLocation

Historic Weather in Villeurbanne — Graph

°F

Villeurbanne temperature yesterday

Maximum temperature yesterday: 75 °F (at 4:00 PM)
Minimum temperature yesterday: 61 °F (at 5:30 AM)
Average temperature yesterday: 67 °F

Past Weeks' High & Low Weather Summary

 TemperatureHumidityPressure
High97 °F (Jul 21, 5:30 PM)94% (Aug 2, 1:30 AM)30.09 "Hg (Aug 2, 1:30 AM)
Low54 °F (Jul 30, 6:30 AM)23% (Jul 21, 8:00 PM)29.71 "Hg (Jul 24, 5:00 PM)
Average74 °F52%29.96 "Hg
* Reported Jul 18 3:00 PM — Aug 2 3:30 PM, Villeurbanne, Weather by CustomWeather, © 2015

Note: Actual official high and low records may vary slightly from our data, if they occured in-between our weather recording intervals... More about our weather records

Advertising

Villeurbanne weather history for previous 24 hours

 ConditionsComfort  
Time TempWeatherWind HumidityBarometerVisibility
3:30 PM
Sun, Aug 2
84 °FPassing clouds.5 mph37%30.01 "HgN/A
3:00 PM84 °FSunny.3 mph35%30.04 "Hg10 mi
2:30 PM82 °FSunny.5 mph37%30.04 "Hg10 mi
2:00 PM82 °FSunny.5 mph37%30.04 "Hg10 mi
1:30 PM81 °FPassing clouds.5 mph39%30.04 "HgN/A
1:00 PM79 °FPassing clouds.7 mph42%30.07 "HgN/A
12:30 PM77 °FPassing clouds.5 mph47%30.07 "HgN/A
12:00 PM77 °FSunny.6 mph51%30.07 "Hg10 mi
11:30 AM75 °FSunny.3 mph54%30.07 "Hg10 mi
11:00 AM75 °FSunny.3 mph57%30.07 "Hg10 mi
10:30 AM73 °FPassing clouds.5 mph57%30.07 "HgN/A
10:00 AM70 °FPassing clouds.5 mph64%30.07 "HgN/A
9:30 AM70 °FSunny.2 mph64%30.07 "Hg10 mi
9:00 AM66 °FSunny.2 mph78%30.09 "Hg10 mi
8:30 AM64 °FSunny.2 mph83%30.07 "Hg10 mi
8:00 AM61 °FClear.1 mph94%30.07 "Hg6 mi
7:30 AM59 °FClear.No wind94%30.07 "Hg6 mi
7:00 AM59 °FClear.2 mph94%30.07 "Hg5 mi
6:30 AM59 °FClear.1 mph94%30.07 "Hg6 mi
6:00 AM59 °FClear.1 mph88%30.07 "Hg6 mi
5:30 AM59 °FClear.1 mph94%30.07 "Hg5 mi
5:00 AM59 °FClear.No wind94%30.07 "Hg5 mi
4:30 AM61 °FClear.2 mph88%30.07 "Hg6 mi
4:00 AM61 °FClear.2 mph94%30.07 "Hg10 mi
3:30 AM61 °FClear.2 mph94%30.07 "Hg10 mi
3:00 AM63 °FClear.2 mph94%30.07 "Hg10 mi
2:30 AM63 °FClear.No wind88%30.07 "Hg10 mi
2:00 AM63 °FClear.No wind94%30.07 "Hg10 mi
1:30 AM63 °FClear.2 mph94%30.07 "Hg10 mi
1:00 AM64 °FClear.1 mph83%30.07 "Hg10 mi
12:30 AM64 °FClear.2 mph88%30.07 "Hg10 mi
12:00 AM66 °FClear.2 mph83%30.07 "Hg10 mi
11:30 PM
Sat, Aug 1
68 °FClear.3 mph78%30.07 "Hg10 mi
11:00 PM68 °FClear.2 mph78%30.07 "Hg10 mi
10:30 PM68 °FClear.3 mph78%30.04 "Hg10 mi
10:00 PM70 °FMore clouds than sun.5 mph69%30.04 "HgN/A
9:30 PM70 °FMostly cloudy.7 mph73%30.04 "HgN/A
9:00 PM70 °FLight rain. Overcast.7 mph69%30.04 "HgN/A
8:30 PM72 °FLight rain. Mostly cloudy.7 mph65%30.01 "HgN/A
8:00 PM72 °FPartly sunny.7 mph61%30.01 "HgN/A
7:30 PM73 °FMostly cloudy.7 mph57%30.01 "HgN/A
7:00 PM73 °FMostly cloudy.5 mph57%30.01 "HgN/A
6:30 PM73 °FBroken clouds.6 mph57%30.01 "HgN/A
6:00 PM75 °FCloudy.5 mph54%29.98 "HgN/A
5:00 PM75 °FScattered clouds.5 mph54%29.98 "HgN/A
4:30 PM75 °FScattered clouds.6 mph54%29.98 "HgN/A
4:00 PM75 °FPartly sunny.5 mph57%29.98 "HgN/A
Weather by CustomWeather, © 2015

See weather overviewHow to use our weather pages